Flag for U.S.A. Weather past 2 weeks in Macon, Georgia, U.S.A.

Now
77 °F

Sunny.


Feels Like: 78 °F
Forecast: 45 / 76 °F
Wind: 6 mph from North

Location: Middle Georgia Regional Airport

Current Time: Oct 25, 2014 at 5:30:21 PM

Latest Report: Oct 25, 2014 at 4:53 PM


Visibility: 10 mi

Pressure: 29.98 "Hg

Humidity: 32%

Dew point: 45 °F

Location of MaconLocation

Historic Weather in Macon — Graph

°F

Macon temperature yesterday

Maximum temperature yesterday: 74 °F (at 3:53 PM)
Minimum temperature yesterday: 43 °F (at 7:53 AM)
Average temperature yesterday: 57 °F

Past Weeks' High & Low Weather Summary

 TemperatureHumidityPressure
High91 °F (Oct 11, 2:53 PM)100% (Oct 11, 2:53 AM)30.15 "Hg (Oct 11, 2:53 AM)
Low38 °F (Oct 23, 5:53 AM)26% (Oct 11, 2:53 PM)29.77 "Hg (Oct 14, 3:53 PM)
Average63 °F75%29.99 "Hg
* Reported Oct 10 3:53 PM — Oct 25 3:53 PM, Macon, Weather by CustomWeather, © 2014

Note: Actual official high and low records may vary slightly from our data, if they occured in-between our weather recording intervals... More about our weather records

Advertising

Macon weather history for previous 24 hours

 ConditionsComfort  
Time TempWeatherWind HumidityBarometerVisibility
3:53 PM
Oct 25
77 °FSunny.8 mph30%29.99 "Hg10 mi
2:53 PM75 °FSunny.5 mph34%30.00 "Hg10 mi
1:53 PM74 °FSunny.3 mph37%30.01 "Hg10 mi
12:53 PM71 °FSunny.3 mph38%30.04 "Hg10 mi
11:53 AM66 °FSunny.No wind52%30.04 "Hg10 mi
10:53 AM60 °FSunny.No wind67%30.06 "Hg10 mi
9:53 AM55 °FSunny.5 mph80%30.06 "Hg10 mi
8:53 AM46 °FSunny.No wind96%30.05 "Hg9 mi
7:53 AM41 °FClear.3 mph100%30.04 "Hg9 mi
6:53 AM41 °FClear.3 mph96%30.02 "Hg9 mi
5:53 AM42 °FClear.No wind100%30.01 "Hg8 mi
4:53 AM44 °FClear.No wind96%30.00 "Hg10 mi
3:53 AM44 °FClear.No wind100%30.00 "Hg7 mi
2:53 AM44 °FClear.3 mph100%30.01 "Hg7 mi
1:53 AM48 °FClear.No wind96%30.01 "Hg10 mi
12:53 AM48 °FClear.3 mph96%30.01 "Hg10 mi
11:53 PM
Oct 24
49 °FClear.3 mph97%30.01 "Hg8 mi
10:53 PM50 °FClear.5 mph96%30.01 "Hg8 mi
9:53 PM50 °FClear.No wind93%30.02 "Hg10 mi
8:53 PM53 °FClear.3 mph89%30.00 "Hg10 mi
7:53 PM55 °FClear.No wind87%30.00 "Hg10 mi
6:53 PM63 °FSunny.No wind60%29.98 "Hg10 mi
5:53 PM72 °FSunny.3 mph34%29.97 "Hg10 mi
Weather by CustomWeather, © 2014

See weather overviewHow to use our weather pages